THOR ABLESTAR DEB, 5715

Orbit data source: Space-Track

THOR ABLESTAR DEB, 5715 is space debris in LEO originally from a launch on Thu, 29 Jun 1961 UTC launched from the Air Force Eastern Test Range (AFETR). Debris objects in space refer to the collection of defunct objects orbiting the Earth. Examples of debris include non-operational satellites, rocket bodies, and fragments generated from explosions, collisions, or faulty payload assembly.

Loading next visibility...
Identifier
5715, 1961-015JS
Orbit
LEO
Country
Flag of USUS
Related business
Manufacturer
Unknown
Mission
Spacecraft
Bus & Motor
Unknown
Mass
Unknown
Launch date (UTC)
1961-06-29 (64 years ago)
Launch vehicle
Unknown
Launch site
Air Force Eastern Test Range (AFETR)
Object type
Payload
Rocket body
Debris
Shape & HBR
Unknown shape, 0.1 m
Radar Cross Section
Small (<0.1 m²)

Expand to show TLE details & history
Last TLE update: 10 hours ago

TLE from 10 hours ago
0 THOR ABLESTAR DEB
1 05715U 61015JS  25294.42695516  .00001165  00000-0  14236-2 0  9992
2 05715  66.5646 300.2597 0162361 211.0507 271.2247 13.63935729169160
Epoch: 2025-10-21T10:14Z
TLE epoch observation values (Epoch: 2025-10-21T10:14:48.925Z)
Latitude
52.41759°
Longitude
-97.63739°
Altitude
1,028.458 km
Speed
7.343 km/s
True Right ascension
05h 44m 43s
True Declination
52° 15' 26"
Sunlit
Object was in daylight at epoch
Visualization orbit readout
Latitude
Unknown
Longitude
Unknown
Altitude
Unknown
Speed
Unknown
Apparent Right ascension
Unknown
Apparent Declination
Unknown
Sunlit
N/A
Visualization observer readout
Local Sidereal Time
15:13:05
Azimuth
Unknown
Elevation
Unknown
Doppler factor
Unknown
Orbital elements
Apogee altitude
1,139.978 km
Perigee altitude
899.749 km
Semi-major axis
7,398.001 km
Eccentricity
0.01624
Inclination
66.5646°
RAAN
300.2597°
Arg. of periapsis
211.0507°
True anomaly
269.36412°
Mean anomaly
271.2247°
Eccentric anomaly
270.29445°
Mean motion
3.41092 °/min
Orbital period
105.54 mins
BSTAR
0.0014236

Documentation

Showing up to 5 results
|